Regional Weather Roundup
Issued by NWS

Home | Current Version | Previous Version | Text Only | Print | Product List | Glossary Off
Versions: 1 2 3 4 5 6 7 8 9 10 11 12 13 14 15 16 17 18 19 20 21 22 23 24 25 26 27 28 29 30 31 32 33 34 35 36 37 38 39 40 41 42 43 44 45 46 47 48 49 50

000
ASUS43 KIND 271400
RWRIN

WEATHER ROUNDUP FOR INDIANA
NATIONAL WEATHER SERVICE INDIANAPOLIS IN
1000 AM EDT SUN MAY 27 2018

NOTE: "FAIR" INDICATES FEW OR NO CLOUDS BELOW 12,000 FEET WITH NO
SIGNIFICANT WEATHER AND/OR OBSTRUCTIONS TO VISIBILITY.

* - STATION DOES NOT REPORT WEATHER SUCH AS PRECIPITATION OR FOG.

+ - STATION NOT QUALITY CONTROLLED BY THE NATIONAL WEATHER SERVICE.
    USE DATA WITH CAUTION...ESPECIALLY DEWPOINT AND RELATIVE
    HUMIDITY OBSERVATIONS.

INZ001>003-010>013-019-020-271500-
NORTHWEST INDIANA

CITY           SKY/WX    TMP DP  RH WIND       PRES   REMARKS
GARY /AIRPORT/ SUNNY     84  64  51 CALM      29.89R
KNOX *+        FAIR      81  68  65 SW3       29.90R
MICHIGAN CITY+ FAIR      81  66  61 SW3       29.90R
MONTICELLO +   FAIR      80  67  63 CALM      29.90S

$$

LMZ046-743>745-271500-
SOUTHERN LAKE MICHIGAN

STATION/POSITION TIME  TEMP    WIND        PRES    WAVE
                       AIR SEA DIR/SP/G            HT
                 (UTC) (F)     (DEG/KT/KT) (MB)    (FT)
BURNS HARBOR     1340   77        CALM     1012.5R
MICHIGAN CITY    1330   78     210/  5/  5   N/A
5NW MICH CITY    1350   72 64  220/  2/  2   N/A     0

$$

INZ004-005-014>016-021>024-271500-
NORTH CENTRAL INDIANA

CITY           SKY/WX    TMP DP  RH WIND       PRES   REMARKS
GOSHEN         FAIR      83  66  56 W6        29.90R
PERU/GRISSOM   FAIR      81  69  67 SW3       29.91R
SOUTH BEND     FAIR      80  68  66 CALM      29.91R
WARSAW +       FAIR      79  66  65 CALM      29.91S

$$

INZ006>009-017-018-025>027-271500-
NORTHEAST INDIANA

CITY           SKY/WX    TMP DP  RH WIND       PRES   REMARKS
ANGOLA *+      FAIR      81  64  57 W6        29.91S
AUBURN +       FAIR      77  68  73 CALM      29.92S
FORT WAYNE     FAIR      79  69  71 SW6       29.92S
KENDALLVILLE + FAIR      80  65  60 W5        29.92S

$$

INZ028-029-035-036-043>045-051>053-271500-
WEST CENTRAL INDIANA

CITY           SKY/WX    TMP DP  RH WIND       PRES   REMARKS
CRAWFORDSVL +  FAIR      79  70  73 CALM      29.92S
GREENCASTLE +  FAIR      79  68  69 CALM      29.93S
LAFAYETTE      FAIR      79  70  74 CALM      29.90R
TERRE HAUTE    FAIR      80  71  74 SW5       29.91S

$$

INZ030>032-037>040-046>048-054>057-064-065-271500-
CENTRAL INDIANA

CITY           SKY/WX    TMP DP  RH WIND       PRES   REMARKS
FRANKFORT +    PTSUNNY   85  70  61 CALM      29.94R
GREENWOOD *+   FAIR      79  69  71 NW3       29.94S
INDIANAPOLIS   FAIR      80  69  69 W5        29.92S
-EAGLE CREEK   FAIR      81  69  67 CALM      29.92R
KOKOMO +       FAIR      80  68  66 S3        29.93R
MT COMFORT *+  FAIR      79  73  83 CALM      29.93S
SHELBYVILLE    FAIR      80  68  66 W5        29.92S

$$

INZ033-034-041-042-049-050-058-059-271500-
EAST CENTRAL INDIANA

CITY           SKY/WX    TMP DP  RH WIND       PRES   REMARKS
MUNCIE         FAIR      81  66  60 VRB5      29.93R
RICHMOND +     FAIR      73  68  83 W7        29.96S

$$

INZ060-061-067>069-081>083-085>088-271500-
SOUTHWEST INDIANA

CITY           SKY/WX    TMP DP  RH WIND       PRES   REMARKS
EVANSVILLE     FAIR      79  72  79 CALM      29.92S
HUNTINGBURG +  FAIR      78  71  79 S8        29.94R

$$

INZ062-063-066-070>080-084-089>092-271500-
SOUTH CENTRAL AND SOUTHEAST INDIANA

CITY           SKY/WX    TMP DP  RH WIND       PRES   REMARKS
BLOOMINGTON    FAIR      81  71  71 W5        29.93S
FRENCH LICK *+ FAIR      77  64  65 S5        29.95R
MADISON *+     FAIR      75  70  83 CALM      29.97S
SEYMOUR +      FAIR      77  70  78 S5        29.93S

$$




USA.gov is the U.S. government's official web portal to all federal, state and local government web resources and services.